Torna al catalogo

STARLINK-34379

AttivoComunicazioniVLEO
NORAD 64302·PAYLOAD·🇺🇸 United States

Lanciato Jun 8, 2025 da Vandenberg Space Force Base

Loading…

Prossimi Passaggi (prossime 24 ore)

TLE

AggiornatoSource: CelesTrak SupGP

Epoca: Sep 14, 2026, 22:55 UTC

1 64302C 25123M   26257.95534722 -.00046404  00000+0 -10471-2 0  2578
2 64302  70.0019  13.3654 0003322 271.9920  24.4326 15.43089259    14

Traccia STARLINK-34379 in tempo reale con AllMySat

Download on the App Store